Wind_Speed
8 8 8 2 2 3 1 4 5 11 17 27 27 16 6 9 5 6 27 21 25 26 24 22 20 20 20 19 18 18 17 16 14 13 12 11 10 11 11 11 10 9 8 9 10 13 14 14 14
3 7 6 7 2 6 7 13 8 13 26 30 20 11 25 19 31 35 33 21 23 25 24 22 20 19 19 18 17 16 15 14 13 12 11 11 11 12 11 11 10 10 10 10 10 11 13 13 14
24 12 6 2 2 5 4 9 4 10 28 26 10 12 9 26 26 27 29 20 24 23 22 21 20 19 18 18 16 15 14 14 13 12 11 11 11 11 11 12 10 9 10 10 9 11 12 13 14
15 11 6 1 7 15 16 11 7 4 36 40 34 13 25 26 30 31 22 21 23 19 21 21 19 19 18 17 16 14 13 13 12 11 10 11 11 10 10 10 9 9 8 9 9 9 10 12 14
11 2 3 2 19 12 16 15 6 22 24 29 31 17 27 31 29 26 27 24 21 18 21 21 20 19 18 17 16 14 13 12 11 10 9 9 10 9 8 8 8 7 7 7 8 8 8 10 12
5 1 3 2 13 16 6 21 4 24 28 28 26 27 23 30 34 24 37 29 19 20 20 21 19 18 18 16 15 13 12 12 11 9 9 8 7 6 6 5 5 6 6 5 5 6 6 7 8
10 3 4 10 8 13 9 16 12 21 28 19 27 18 28 29 29 30 32 24 16 18 18 19 18 17 15 13 13 12 12 11 9 8 7 7 6 5 4 4 3 2 2 3 3 4 4 5 7
14 4 3 6 6 7 19 19 19 14 23 29 37 9 21 30 29 31 29 18 12 18 16 17 16 15 14 13 12 11 10 9 8 7 6 6 5 4 4 3 3 2 0 1 2 3 2 2 4
7 4 3 4 7 7 21 11 16 13 21 12 12 35 35 29 27 31 32 28 18 13 12 16 16 15 13 11 9 8 7 7 6 6 5 2 3 4 3 3 5 4 3 4 2 2 3 4 4
1 4 7 8 11 8 12 17 17 8 10 25 28 31 33 31 29 31 31 27 20 15 10 15 16 15 12 11 8 7 7 6 6 4 3 4 1 1 2 2 3 4 2 4 2 3 4 5 4
5 5 9 8 10 12 11 12 17 19 8 29 34 35 32 30 30 33 29 25 23 14 14 14 13 10 9 7 2 10 8 5 4 6 4 3 3 2 3 3 3 5 3 4 4 5 4 5 5
3 7 14 9 3 15 6 18 14 10 21 30 34 32 30 26 24 31 29 27 24 19 18 21 16 15 13 2 9 6 5 3 1 2 3 2 1 3 4 5 6 5 7 9 10 11 11 11 7
3 5 17 11 4 13 28 21 10 17 21 27 30 29 28 26 22 26 25 29 25 22 25 22 22 17 13 7 6 4 3 9 6 4 5 4 5 5 5 4 5 3 9 9 9 10 10 11 10
5 5 14 18 8 10 16 11 11 5 21 25 29 28 26 26 24 22 29 32 25 21 24 23 27 20 16 14 15 10 7 10 6 6 4 4 4 5 10 7 4 3 5 9 12 11 15 12 12
3 4 4 10 8 9 31 6 1 2 8 21 22 25 26 25 24 25 28 27 25 26 21 25 22 20 20 21 19 15 10 5 8 4 2 1 5 11 6 7 6 6 3 6 6 8 9 8 8
13 6 5 4 5 8 8 4 9 9 1 21 22 23 25 24 23 25 25 25 24 24 27 20 19 16 13 22 22 18 14 9 2 3 4 7 13 5 6 4 6 1 3 5 7 9 8 6 5
8 4 8 15 26 10 5 5 11 9 7 15 24 23 26 24 23 23 23 25 23 22 27 26 20 18 12 11 15 14 13 7 3 4 5 7 8 5 3 1 6 8 4 5 10 5 6 7 5
2 6 6 8 18 16 4 6 8 13 13 17 25 23 25 25 25 24 20 23 23 21 25 23 19 19 17 10 10 13 11 7 8 10 10 7 4 1 2 1 3 3 7 4 10 9 7 9 10
14 11 9 11 21 15 12 9 11 18 13 6 16 26 24 25 26 25 23 23 23 22 23 24 20 19 20 16 12 13 14 11 12 11 11 3 1 3 3 3 2 5 4 4 5 5 4 7 12
12 11 16 8 13 6 5 9 15 10 13 22 13 2 25 28 28 29 27 28 28 24 24 22 25 24 19 17 13 12 9 11 14 11 8 3 3 6 6 4 2 3 3 3 3 4 5 6 8
11 7 8 20 13 1 3 8 10 3 12 21 20 10 15 35 35 35 32 33 31 26 21 27 28 26 24 20 15 11 8 13 12 7 5 4 7 6 4 1 4 4 1 5 5 6 3 2 5
8 13 14 6 5 3 8 4 3 4 4 3 18 13 40 40 36 39 37 35 35 30 26 21 26 27 26 23 17 16 18 14 9 8 6 3 5 6 3 2 2 4 1 2 5 7 6 4 2
8 8 7 7 8 5 7 3 2 3 5 7 13 22 30 30 37 39 44 39 36 34 32 26 23 22 23 22 21 16 17 14 9 9 7 4 9 7 3 2 5 3 2 5 7 7 11 10 8
5 7 10 7 4 5 8 1 3 6 9 4 11 20 28 28 32 33 42 40 39 36 33 31 27 22 20 19 24 19 17 13 13 9 6 6 11 9 4 5 6 3 4 5 9 9 9 13 10
5 2 4 5 4 9 10 3 6 9 9 14 14 23 33 21 28 25 39 44 41 40 38 34 30 25 21 19 27 23 17 13 14 15 10 9 12 11 4 4 4 4 4 7 5 4 5 8 12
7 7 5 7 5 7 6 8 7 17 18 26 27 22 13 21 20 19 38 42 43 44 42 35 32 26 22 21 23 26 22 17 17 16 14 15 15 12 8 2 3 4 8 4 2 2 5 6 8
7 5 10 4 6 4 2 3 5 7 14 11 16 11 37 21 20 26 37 34 44 44 45 38 32 27 22 23 22 21 22 21 20 15 11 17 19 17 8 5 6 3 2 1 2 2 4 8 5
4 5 4 4 2 7 5 2 3 7 9 5 11 24 7 32 36 27 34 40 45 44 43 37 31 24 24 25 23 21 20 20 18 17 14 16 17 16 10 10 8 6 3 1 4 6 6 8 3
2 5 3 2 3 2 3 4 6 8 4 7 11 20 25 33 25 40 22 40 46 46 42 38 32 27 25 27 24 22 21 24 23 17 20 18 19 15 12 12 11 7 4 3 5 5 5 5 4
8 8 8 5 9 4 3 4 5 5 4 2 19 27 25 24 31 38 28 37 46 44 42 38 32 27 24 27 25 21 19 22 24 25 21 22 21 16 12 12 12 7 4 2 2 3 2 3 5
Wind_Direction
89 49 20 120 97 109 312 70 86 65 64 78 69 31 82 47 117 138 148 159 147 144 143 137 133 129 125 122 125 120 118 117 117 119 120 123 119 115 103 101 95 95 101 96 97 95 110 114 114
19 5 331 281 314 84 64 48 54 90 112 90 80 34 75 75 109 123 134 153 145 142 140 139 135 134 130 130 123 119 117 121 118 117 119 122 121 111 107 105 113 103 103 110 101 98 108 113 113
17 327 266 265 277 103 109 59 338 356 112 99 95 142 81 116 119 130 144 143 143 139 140 137 138 137 135 131 126 121 124 123 121 119 122 122 118 112 111 109 110 109 106 111 115 107 106 110 112
46 311 232 307 65 73 96 20 337 327 101 106 117 92 121 133 128 137 136 138 137 133 142 142 142 141 138 133 130 128 129 126 124 127 125 121 112 111 111 110 112 107 107 102 104 111 117 115 114
35 251 339 255 97 111 102 122 274 84 95 100 108 108 111 121 130 134 139 146 145 142 145 142 140 137 135 133 134 129 128 129 130 126 127 118 122 113 113 111 115 108 113 112 112 113 102 119 124
137 137 16 63 59 115 133 99 279 100 104 109 105 114 121 129 140 139 148 157 145 141 143 140 141 140 140 141 135 132 136 130 131 125 117 118 112 103 105 112 120 120 110 114 116 120 127 123 128
309 106 265 92 93 77 105 158 130 130 132 140 125 121 134 142 147 144 159 152 147 145 146 142 143 148 148 144 141 141 137 128 131 133 129 122 115 107 109 107 100 107 120 117 126 131 140 146 144
183 178 181 70 78 88 81 73 86 85 134 135 134 150 152 151 153 146 150 149 132 136 151 151 152 151 149 147 145 143 134 136 138 136 135 137 137 121 87 98 61 40 36 270 219 189 186 181 178
6 46 111 133 104 92 96 99 112 115 138 160 165 147 149 152 155 146 141 142 145 151 164 153 152 148 146 142 134 132 129 128 127 121 110 136 123 109 121 76 48 23 6 8 17 242 253 241 209
159 103 68 67 109 116 117 133 114 100 108 112 127 142 149 157 162 153 147 154 158 150 142 141 149 151 135 139 120 124 121 103 107 117 72 42 90 114 104 76 61 34 19 359 335 349 339 315 240
359 132 100 63 58 97 95 97 155 150 140 129 136 144 156 168 171 162 160 166 165 159 150 168 160 151 159 162 182 142 125 107 95 50 111 102 39 20 333 279 267 281 305 309 307 302 333 303 242
303 121 118 107 33 77 70 92 83 59 139 144 147 152 162 173 179 162 161 165 161 163 167 183 178 171 179 101 160 137 176 145 143 36 24 270 257 248 212 275 272 285 311 310 307 298 292 286 272
330 28 108 126 181 117 76 72 30 91 122 142 149 156 168 173 182 167 167 170 164 167 177 182 177 170 168 166 154 201 253 215 221 248 296 319 283 268 330 283 238 277 315 312 302 302 312 305 269
165 285 153 160 138 117 99 108 109 326 126 139 152 162 171 180 184 182 170 167 167 167 175 175 169 167 163 166 185 188 204 204 198 302 322 5 289 306 315 316 350 333 340 324 293 309 322 318 277
339 247 228 99 154 111 113 92 156 239 139 148 163 171 177 188 190 188 172 171 172 174 174 182 188 197 209 205 205 186 144 207 270 326 255 249 327 303 288 323 336 341 274 302 312 323 338 333 285
300 247 30 193 212 178 113 240 212 158 159 157 172 183 184 194 192 183 183 180 180 178 191 196 206 220 229 209 203 200 191 171 95 170 214 290 311 300 252 308 303 305 333 37 338 322 334 358 6
5 65 74 320 328 295 115 229 256 160 207 185 182 189 186 192 190 184 185 181 183 182 193 196 207 217 222 208 192 184 161 174 270 261 227 282 289 315 296 241 334 322 5 2 341 12 7 3 11
194 50 22 348 288 259 148 217 246 201 203 202 184 190 185 187 189 181 185 181 182 184 195 195 190 216 216 225 202 185 181 187 207 242 271 296 283 327 71 302 44 40 11 341 338 339 356 1 333
268 140 173 205 228 250 188 192 219 209 210 214 182 184 188 189 189 186 188 190 186 190 193 193 191 202 212 208 209 194 187 192 210 242 286 311 279 267 252 289 36 53 320 334 341 348 22 48 37
273 175 204 110 240 204 277 207 208 187 152 171 160 48 197 190 191 187 187 193 193 196 206 198 195 199 208 219 223 209 195 208 241 251 286 249 239 255 268 280 310 29 24 349 348 356 25 70 36
271 256 255 180 218 252 111 308 145 110 215 193 122 41 263 204 189 187 186 196 199 200 201 198 197 199 210 217 210 188 206 220 223 234 270 304 243 228 199 235 26 159 55 315 324 338 312 53 57
273 280 293 293 147 199 168 237 98 220 191 359 85 178 202 215 194 191 185 197 203 208 213 203 203 205 207 215 199 200 215 214 207 231 244 230 194 153 156 90 61 169 270 359 48 46 31 9 58
245 324 319 323 322 343 299 119 263 156 53 251 193 235 216 202 194 192 190 194 211 212 208 206 208 214 218 207 199 203 215 229 243 223 225 234 171 159 171 306 164 196 39 49 52 56 44 31 37
268 328 326 321 328 337 255 182 223 175 202 213 265 257 220 198 193 198 196 195 204 210 209 206 207 217 221 211 199 202 209 212 207 196 231 196 185 173 199 158 142 121 47 59 68 48 27 13 20
319 310 314 329 325 244 265 38 225 216 194 197 195 251 263 231 203 205 196 194 197 207 208 207 206 213 219 217 199 204 203 199 210 218 190 187 185 179 169 155 128 62 80 72 85 49 13 4 356
248 195 170 238 247 263 349 149 219 201 203 201 200 226 268 274 265 214 199 199 198 202 206 206 207 208 214 215 203 207 213 204 199 194 204 204 191 186 186 223 167 95 76 87 63 311 343 347 358
277 295 228 245 290 359 168 105 16 242 254 234 225 298 225 228 228 243 192 195 196 201 202 204 209 207 211 210 203 201 207 208 209 210 216 234 208 194 204 197 148 136 52 75 252 314 319 344 337
190 250 5 343 233 272 287 140 216 191 196 151 81 69 292 161 162 200 208 189 195 198 199 200 210 210 208 204 201 202 203 193 189 201 201 187 186 190 206 178 170 197 218 245 295 299 316 326 344
261 266 266 176 154 182 296 267 217 217 246 104 123 161 166 167 189 186 172 188 193 193 196 200 203 206 209 204 199 202 201 195 197 195 199 193 192 196 206 176 196 216 241 306 289 275 313 346 357
192 212 186 127 289 247 156 296 204 170 169 165 175 192 184 189 187 184 185 192 186 188 193 196 201 209 211 206 203 201 204 202 199 193 199 197 199 201 198 195 206 223 267 300 335 270 328 7 27
Height
1491 1492 1488 1491 1496 1491 1500 1490 1479 1482 1489 1490 1486 1493 1495 1496 1501 1524 1519 1522 1525 1528 1532 1535 1537 1540 1541 1543 1546 1547 1547 1548 1550 1551 1553 1554 1555 1557 1557 1558 1558 1559 1560 1561 1561 1563 1564 1565 1566
1489 1492 1492 1492 1497 1503 1497 1484 1485 1482 1492 1485 1487 1500 1498 1504 1502 1513 1520 1524 1526 1529 1532 1535 1538 1540 1542 1545 1547 1547 1548 1550 1551 1552 1553 1554 1555 1556 1557 1558 1559 1559 1560 1560 1561 1563 1564 1566 1567
1497 1491 1496 1491 1493 1499 1501 1484 1487 1483 1487 1487 1496 1502 1503 1510 1513 1515 1521 1524 1528 1530 1534 1536 1539 1542 1544 1546 1547 1548 1550 1551 1552 1553 1553 1554 1555 1556 1557 1558 1560 1560 1561 1561 1561 1562 1564 1566 1567
1496 1487 1489 1497 1493 1487 1494 1495 1489 1486 1489 1491 1497 1505 1510 1510 1514 1518 1524 1525 1527 1532 1535 1538 1541 1543 1545 1546 1548 1550 1551 1552 1552 1553 1554 1554 1556 1557 1558 1560 1561 1561 1562 1561 1562 1562 1563 1565 1567
1491 1490 1494 1498 1499 1493 1485 1481 1484 1486 1493 1498 1500 1508 1512 1515 1518 1521 1522 1524 1528 1533 1537 1539 1542 1544 1546 1547 1549 1550 1551 1552 1553 1554 1555 1556 1557 1558 1559 1561 1561 1562 1562 1562 1562 1563 1564 1565 1567
1494 1489 1503 1506 1489 1487 1484 1485 1492 1488 1495 1502 1505 1510 1516 1518 1520 1522 1523 1526 1531 1533 1538 1540 1543 1546 1547 1548 1549 1550 1552 1553 1554 1555 1556 1557 1558 1559 1560 1561 1562 1562 1562 1563 1563 1563 1564 1565 1566
1499 1498 1503 1490 1488 1483 1483 1485 1485 1488 1495 1501 1505 1511 1517 1520 1521 1523 1524 1528 1531 1534 1538 1541 1544 1546 1547 1548 1550 1551 1553 1554 1556 1556 1557 1558 1558 1560 1561 1562 1563 1563 1562 1562 1562 1563 1563 1564 1565
1481 1485 1494 1486 1491 1489 1481 1485 1487 1488 1494 1498 1498 1510 1514 1518 1521 1523 1525 1527 1531 1535 1539 1541 1544 1546 1548 1549 1550 1552 1553 1555 1557 1557 1558 1558 1558 1560 1561 1562 1563 1564 1563 1562 1562 1562 1562 1563 1564
1471 1485 1496 1488 1486 1484 1482 1485 1489 1493 1495 1492 1496 1501 1510 1517 1520 1524 1526 1528 1531 1536 1538 1541 1544 1546 1548 1550 1551 1553 1555 1556 1557 1558 1559 1559 1560 1560 1560 1560 1561 1562 1563 1563 1562 1562 1562 1562 1563
1470 1487 1482 1475 1482 1481 1481 1483 1491 1493 1496 1496 1501 1507 1512 1516 1519 1523 1525 1528 1532 1535 1538 1541 1543 1545 1547 1550 1552 1554 1556 1557 1559 1560 1561 1561 1561 1561 1561 1561 1560 1561 1561 1562 1562 1562 1562 1562 1562
1469 1481 1474 1476 1477 1479 1481 1482 1486 1491 1496 1495 1500 1507 1512 1515 1518 1521 1524 1526 1530 1533 1536 1538 1542 1544 1547 1550 1553 1554 1557 1558 1558 1559 1559 1560 1562 1563 1561 1561 1561 1561 1560 1560 1561 1561 1560 1560 1560
1475 1469 1472 1477 1478 1479 1481 1483 1485 1487 1490 1494 1500 1507 1512 1515 1517 1520 1523 1528 1529 1534 1536 1537 1541 1543 1547 1549 1552 1554 1555 1556 1555 1558 1560 1562 1561 1560 1560 1560 1561 1560 1559 1559 1559 1559 1558 1558 1558
1470 1470 1473 1477 1478 1480 1483 1488 1492 1492 1495 1498 1502 1508 1513 1516 1518 1520 1523 1525 1529 1533 1536 1538 1541 1544 1548 1551 1551 1552 1554 1554 1556 1558 1561 1561 1561 1560 1558 1560 1559 1560 1559 1559 1558 1557 1555 1555 1555
1468 1467 1470 1474 1478 1480 1484 1489 1486 1496 1497 1503 1505 1508 1513 1516 1518 1519 1521 1524 1528 1532 1536 1537 1541 1543 1546 1549 1552 1553 1554 1556 1558 1561 1561 1562 1562 1560 1561 1562 1561 1559 1558 1557 1557 1556 1552 1550 1551
1468 1471 1470 1474 1478 1483 1483 1496 1497 1497 1501 1504 1509 1510 1513 1515 1517 1519 1519 1521 1526 1531 1535 1538 1540 1544 1546 1547 1550 1552 1554 1557 1559 1560 1562 1561 1559 1558 1557 1562 1562 1559 1555 1555 1555 1555 1551 1547 1545
1471 1471 1492 1472 1476 1480 1481 1505 1486 1492 1500 1503 1508 1510 1511 1514 1516 1518 1519 1521 1524 1528 1533 1535 1537 1540 1543 1545 1548 1552 1555 1558 1558 1559 1560 1559 1559 1557 1559 1560 1559 1556 1553 1550 1555 1554 1551 1547 1544
1491 1503 1494 1503 1488 1486 1484 1502 1483 1488 1493 1499 1504 1507 1509 1512 1515 1518 1519 1521 1523 1527 1531 1534 1536 1538 1541 1544 1547 1551 1554 1557 1559 1557 1558 1558 1557 1558 1559 1557 1558 1556 1554 1550 1553 1551 1550 1546 1545
1496 1498 1496 1505 1494 1477 1488 1491 1481 1482 1487 1494 1499 1503 1506 1508 1512 1516 1519 1521 1523 1526 1529 1532 1535 1537 1540 1543 1546 1550 1553 1556 1557 1555 1555 1555 1557 1557 1559 1559 1558 1554 1552 1552 1551 1550 1548 1545 1543
1473 1490 1498 1482 1487 1476 1487 1485 1482 1476 1486 1495 1497 1500 1507 1508 1509 1513 1519 1521 1523 1525 1528 1530 1534 1536 1538 1541 1544 1548 1551 1553 1553 1554 1555 1553 1549 1554 1557 1558 1557 1554 1553 1552 1550 1549 1546 1544 1543
1472 1483 1489 1476 1475 1473 1469 1478 1475 1476 1486 1482 1488 1499 1505 1505 1507 1510 1516 1518 1520 1523 1525 1528 1531 1533 1535 1539 1542 1545 1549 1551 1551 1553 1555 1554 1554 1554 1557 1557 1555 1552 1551 1551 1549 1548 1545 1543 1543
1473 1476 1471 1483 1470 1461 1466 1482 1482 1485 1482 1475 1487 1494 1506 1503 1497 1504 1510 1513 1517 1520 1523 1525 1527 1530 1532 1535 1539 1542 1546 1548 1549 1551 1551 1552 1552 1553 1554 1554 1552 1551 1550 1549 1549 1546 1544 1543 1543
1484 1457 1456 1456 1473 1496 1465 1514 1490 1486 1478 1480 1499 1493 1490 1498 1491 1493 1503 1508 1512 1515 1518 1521 1524 1527 1530 1534 1536 1540 1543 1545 1548 1550 1551 1551 1551 1551 1550 1550 1550 1551 1552 1549 1546 1545 1544 1544 1543
1470 1456 1459 1458 1471 1474 1472 1493 1502 1487 1492 1487 1478 1473 1473 1480 1483 1486 1494 1501 1504 1510 1513 1517 1520 1523 1527 1530 1533 1537 1541 1545 1548 1548 1550 1550 1549 1548 1548 1549 1550 1550 1550 1548 1546 1545 1545 1544 1542
1452 1460 1463 1463 1475 1508 1478 1481 1517 1497 1482 1479 1473 1466 1466 1470 1475 1485 1490 1496 1499 1504 1508 1512 1515 1519 1523 1527 1531 1534 1537 1543 1542 1542 1546 1548 1548 1546 1546 1546 1547 1547 1547 1548 1547 1547 1546 1545 1542
1458 1473 1516 1519 1519 1512 1470 1484 1496 1476 1470 1467 1456 1460 1453 1462 1472 1484 1491 1492 1496 1499 1503 1507 1512 1515 1519 1523 1527 1530 1534 1538 1538 1539 1543 1544 1544 1545 1545 1545 1546 1547 1547 1548 1548 1547 1546 1544 1541
1469 1476 1514 1524 1523 1503 1465 1498 1484 1455 1456 1459 1451 1454 1461 1463 1481 1483 1486 1487 1492 1494 1497 1503 1508 1512 1515 1519 1523 1526 1530 1534 1536 1538 1541 1541 1540 1542 1543 1544 1545 1547 1547 1547 1547 1546 1545 1543 1539
1466 1482 1462 1485 1480 1500 1483 1481 1472 1465 1460 1468 1467 1471 1460 1473 1494 1486 1476 1479 1486 1490 1493 1498 1505 1508 1512 1516 1520 1522 1525 1530 1534 1537 1539 1538 1538 1540 1542 1544 1545 1546 1547 1547 1546 1545 1543 1541 1538
1454 1454 1488 1490 1509 1516 1490 1481 1487 1470 1464 1459 1456 1461 1473 1469 1466 1453 1469 1470 1477 1483 1490 1496 1501 1505 1510 1514 1517 1520 1522 1527 1529 1532 1534 1535 1537 1539 1542 1544 1545 1545 1545 1545 1543 1542 1541 1539 1538
1462 1471 1466 1477 1486 1509 1513 1498 1456 1456 1455 1450 1451 1453 1460 1456 1453 1459 1463 1467 1471 1477 1483 1491 1498 1503 1508 1511 1515 1518 1521 1524 1527 1529 1531 1533 1536 1539 1541 1542 1543 1544 1543 1543 1542 1541 1540 1540 1539
1443 1456 1463 1498 1494 1484 1491 1490 1446 1449 1446 1449 1455 1453 1453 1448 1446 1450 1459 1470 1468 1475 1480 1488 1495 1500 1505 1510 1513 1518 1522 1524 1526 1527 1528 1532 1534 1537 1540 1542 1542 1542 1543 1543 1542 1540 1539 1539 1538